Location: Gilevgi
(36.8751°N, 30.0581°E)
Time: 20:58:38
(UTC+00:00)

IRIDIUM 103 - Pass Details

Date: 11 December 2025
Orbit: 776 x 779 km, 86.4° (Epoch: 11 January)

Event Time Altitude Azimuth Distance (km) Brightness Sun altitude
Rises 15:17:29 0° 359° (N) 3,266 7.3 -6.9°
Reaches altitude 10° 15:19:51 10° 2° (N) 2,334 6.6 -7.4°
Maximum altitude 15:25:05 74° 87° (E) 809 4.3 -8.3°
Drops below altitude 10° 15:30:16 10° 173° (S) 2,317 7.0 -9.3°
Sets 15:32:36 0° 175° (S) 3,239 7.8 -9.7°
